Location: Bagnara
(41.0500°N, 14.7833°E)
Time: 08:36:57
(UTC+00:00)

Cosmos 372 Rocket - Pass Details

Date: 20 June 2021
Orbit: 737 x 768 km, 74.1° (Epoch: 01 August)

Event Time Altitude Azimuth Distance (km) Brightness Sun altitude
Rises 01:03:23 0° 336° (NNW) 3,236 7.8 -19.7°
Reaches altitude 10° 01:05:47 10° 333° (NNW) 2,310 6.9 -19.4°
Maximum altitude 01:10:56 60° 255° (WSW) 880 4.0 -19.0°
Enters shadow 01:13:08 33° 190° (S) 1,267 4.6 -18.7°
